Omak, WA

11:36 PM PDT on September 14, 2019 (GMT -0700)
Omak

Weather History for KOMK - August, 2019

Change the Weather History Date:

Thursday, August 22, 2019

  Actual Average Record
Temperature  
Mean Temperature 73 °F 71 °F  
Max Temperature 87 °F 87 °F 103 °F (1915)
Min Temperature 58 °F 56 °F 41 °F (1976)
Degree Days  
Heating Degree Days 0 1  
Month to date heating degree days 0 2  
Since 1 June heating degree days 56 86  
Since 1 July heating degree days 0 17  
Cooling Degree Days 8 7  
Month to date cooling degree days 231 195  
Year to date cooling degree days 635 556  
Since 1 June cooling degree days 607 533  
Growing Degree Days 23 (Base 50)    
Moisture  
Dew Point 48 °F    
Average Humidity 51    
Maximum Humidity 84    
Minimum Humidity 18    
Precipitation  
Precipitation 0.00 in 0.02 in 0.30 in (1943)
Month to date precipitation 0.33 0.36  
Year to date precipitation 5.38 9.15  
Sea Level Pressure  
Sea Level Pressure 29.89 in    
Wind  
Wind Speed 10 mph (NNW)    
Max Wind Speed 21 mph    
Max Gust Speed 26 mph    
Visibility 10 miles    
Events      
T = Trace of Precipitation, MM = Missing Value Source: NWS Daily Summary

Daily Weather History Graph

Daily Weather History Graph

Search for Another Location

Airport or City:

Astronomy

Aug. 22, 2019 Rise Set
Actual Time 6:01 AM PDT 7:59 PM PDT
Civil Twilight 5:27 AM PDT 8:33 PM PDT
Nautical Twilight 4:46 AM PDT 9:14 PM PDT
Astronomical Twilight 3:59 AM PDT 10:00 PM PDT
Moon 11:18 PM PDT (8/22) 1:13 PM PDT (8/22)
Length of Visible Light 15h 05m
Length of Day
13h 58m
Waning Gibbous, 58% of the Moon is Illuminated
Aug 22
Waning Gibbous
Aug 23
Last Quarter
Aug 30
New
Sep 5
First Quarter
Sep 13
Full

Hourly Weather History & Observations

Time (PDT) Temp. Dew Point Humidity Pressure Visibility Wind Dir Wind Speed Gust Speed Precip Events Conditions
12:53 AM 64.0 °F 57.0 °F 78% 29.83 in 10.0 mi NW 8.1 mph - N/A   Clear
1:53 AM 64.0 °F 57.9 °F 80% 29.84 in 10.0 mi North 8.1 mph - N/A   Overcast
2:53 AM 64.0 °F 57.0 °F 78% 29.85 in 10.0 mi Calm Calm - N/A   Overcast
3:53 AM 63.0 °F 57.0 °F 81% 29.86 in 10.0 mi NW 8.1 mph - N/A   Overcast
4:53 AM 61.0 °F 55.0 °F 81% 29.88 in 10.0 mi NNW 4.6 mph - N/A   Overcast
5:53 AM 59.0 °F 54.0 °F 83% 29.90 in 10.0 mi WNW 9.2 mph - N/A   Clear
6:53 AM 62.1 °F 54.0 °F 75% 29.91 in 10.0 mi NNW 6.9 mph - N/A   Clear
7:53 AM 64.9 °F 54.0 °F 68% 29.93 in 10.0 mi North 9.2 mph - N/A   Clear
8:53 AM 69.1 °F 48.0 °F 47% 29.93 in 10.0 mi North 10.4 mph - N/A   Clear
9:53 AM 72.0 °F 46.9 °F 41% 29.93 in 10.0 mi North 15.0 mph - N/A   Clear
10:53 AM 75.9 °F 46.9 °F 36% 29.94 in 10.0 mi NNE 16.1 mph 21.9 mph N/A   Clear
11:53 AM 80.1 °F 45.0 °F 29% 29.93 in 10.0 mi NNE 16.1 mph 26.5 mph N/A   Clear
1:53 PM 82.9 °F 44.1 °F 25% 29.90 in 10.0 mi NNE 12.7 mph 18.4 mph N/A   Clear
2:53 PM 84.9 °F 42.1 °F 22% 29.88 in 10.0 mi NNE 11.5 mph 23.0 mph N/A   Clear
3:53 PM 87.1 °F 39.9 °F 19% 29.87 in 10.0 mi North 11.5 mph - N/A   Clear
4:53 PM 87.1 °F 39.0 °F 18% 29.86 in 10.0 mi NNE 10.4 mph - N/A   Clear
5:53 PM 86.0 °F 39.9 °F 20% 29.86 in 10.0 mi North 8.1 mph - N/A   Clear
6:53 PM 82.9 °F 39.9 °F 22% 29.87 in 10.0 mi North 10.4 mph - N/A   Clear
7:53 PM 72.0 °F 44.1 °F 37% 29.88 in 10.0 mi North 9.2 mph - N/A   Clear
8:53 PM 69.1 °F 43.0 °F 39% 29.90 in 10.0 mi NW 8.1 mph - N/A   Clear
9:53 PM 70.0 °F 44.1 °F 39% 29.90 in 10.0 mi NW 11.5 mph - N/A   Clear
10:53 PM 68.0 °F 44.1 °F 42% 29.90 in 10.0 mi WNW 12.7 mph - N/A   Clear
11:53 PM 63.0 °F 43.0 °F 48% 29.91 in 10.0 mi Calm Calm - N/A   Clear